Volver al catálogo

IUS R/B(1)

ActivoHEO
NORAD 13971·ROCKET BODY·🇺🇸 United States

Lanzado Apr 4, 1983 desde Cape Canaveral Space Force Station

Loading…

Próximos Pases (próximas 24 horas)

TLE

ActualizadoSource: Space-Track

Época: Sep 14, 2026, 07:51 UTC

1 13971U 83026D   26257.32771335  .00002629  00000-0  71905-3 0  9997
2 13971  25.9151 133.7462 5883199 196.3923 130.8260  4.19710793511231

Sigue IUS R/B(1) en tiempo real con AllMySat

Download on the App Store